User: anonymous   Login
Location: Unspecified
(0.0000°N, 0.0000°E)
Time: 21:09:19
(UTC+02:00)
Language:

Cosmos 1703 - Orbit

View from above orbital plane
View from above orbital plane
View from above satellite
View from above satellite

Ground track
Ground track

The orbit data is extracted from the following two-line orbital elements,

1 16262U 85108A   17141.85239840 +.00001341 +00000-0 +79909-4 0  9999
2 16262 082.4777 275.7981 0012348 016.7837 343.3799 15.10316877714923
Epoch (UTC): 21 May 2017 20:27:27
Eccentricity: 0.0012348
inclination: 82.4777°
perigee height: 527 km
apogee height: 544 km
right ascension of ascending node: 275.7981°
argument of perigee: 16.7837°
revolutions per day: 15.10316877
mean anomaly at epoch: 343.3799°
orbit number at epoch: 71492

The dashed part of the orbit path shows where the satellite is in the earth's shadow,  

DLR